Tracking 32579 objects as of 16-Dec-2025
HD Live streaming from Space Station
objects crossing your sky now

AFR-1

Track AFR-1 now!
10-day predictions


NORAD ID: 56964
Int'l Code: 2023-084AJ
Perigee: 487.2 km
Apogee: 500.4 km
Inclination: 97.6 °
Period: 94.3 minutes
Semi major axis: 6864 km
RCS: Unknown
Launch date: June 12, 2023
Source: India (IND)
Launch site: AIR FORCE WESTERN TEST RANGE (AFWTR)
Your satellite tracking list
Your tracking list is empty




NASA's NSSDC Master Catalog

Two Line Element Set (TLE):
1 56964U 23084AJ  25350.34143360  .00004359  00000-0  17040-3 0  9992
2 56964  97.6019 118.2359 0009618 262.0475  97.9672 15.26376058139313
Source of the keplerian elements: AFSPC